Hourly Data Report for April 23, 2006

TORONTO CITY
ONTARIO

43°40'00.000" N
79°24'00.000" W
112.50 m
6158355
71508
XTO

Download Data

Hourly Data (April 2006)
Hourly Data Report for April 23, 2006
TIME
LST
Temp Definition
°C
Dew Point Definition
°C
Rel Hum Definition
%
Precip. Amount Definition
mm

Wind Dir Definition
10's deg

Wind Spd Definition
km/h
Visibility Definition
km
Stn Press Definition
kPa
Hmdx Definition


Wind Chill Definition


Weather Definition


00:00 7.3 6.7 96   LegendMM LegendMM   99.91     LegendNANA
01:00 7.2 6.5 95   LegendMM LegendMM   99.87     LegendNANA
02:00 6.9 6.1 95   LegendMM LegendMM   99.74     LegendNANA
03:00 6.6 5.6 93   LegendMM LegendMM   99.67     LegendNANA
04:00 6.6 5.5 93   LegendMM LegendMM   99.72     LegendNANA
05:00 6.3 5.2 93   LegendMM LegendMM   99.72     LegendNANA
06:00 6.0 4.9 93   LegendMM LegendMM   99.75     LegendNANA
07:00 5.9 5.0 94   LegendMM LegendMM   99.72     LegendNANA
08:00 6.2 5.3 94   LegendMM LegendMM   99.64     LegendNANA
09:00 6.3 5.3 93   LegendMM LegendMM   99.62     LegendNANA
10:00 5.9 5.0 94   LegendMM LegendMM   99.64     LegendNANA
11:00 5.6 5.0 96   LegendMM LegendMM   99.63     LegendNANA
12:00 5.5 5.1 97   LegendMM LegendMM   99.54     LegendNANA
13:00 5.6 5.2 97   LegendMM LegendMM   99.54     LegendNANA
14:00 5.8 5.4 97   LegendMM LegendMM   99.61     LegendNANA
15:00 6.4 5.9 97   LegendMM LegendMM   99.55     LegendNANA
16:00 6.7 6.1 96   LegendMM LegendMM   99.55     LegendNANA
17:00 6.7 5.6 93   LegendMM LegendMM   99.53     LegendNANA
18:00 6.5 5.7 95   LegendMM LegendMM   99.53     LegendNANA
19:00 5.6 4.8 95   LegendMM LegendMM   99.54     LegendNANA
20:00 5.1 4.3 95   LegendMM LegendMM   99.56     LegendNANA
21:00 5.3 4.6 95   LegendMM LegendMM   99.55     LegendNANA
22:00 5.4 4.9 97   LegendMM LegendMM   99.54     LegendNANA
23:00 5.3 4.8 97   LegendMM LegendMM   99.50     LegendNANA

Notes on Data Quality.

Legend

  • E = Estimated
  • M = Missing
  • NA = Not Available*
  • [empty] = Indicates an unobserved value
Date modified: